Weather in Sen'kino

Russia / Perm Krai     58°27′11″N   56°15′17″E
temp.,
°C
wind,
m/s
gust,
m/s
humid.,
%
clouds,
%
prec.,
mm/h
press.,
hPa
HPBL,
m
17 october, sun
sun1723:00+6ssw41170100 0.0 1017585
02:00+6ssw4126794 0.0 1016589
05:00+6ssw51267100 0.0 1015604
08:00+5ssw41270100 0.0 1014505
11:00+7ssw5146398 0.0 1013709
14:00+9sw6125690 0.0 10131225
17:00+8sw51168100 0.0 10131275
20:00+7sw4107246 0.0 1014722
18 october, mon
mon1823:00+6ssw31081100 0.1 1013425
02:00+5ssw41179100 0.0 1012415
05:00+5ssw41277100 0.0 1011464
08:00+5ssw41178100 0.0 1011425
11:00+7ssw4107561 0.0 1010586
14:00+9sw4866100 0.0 10101012
17:00+8ssw487091 0.0 1009737
20:00+6ssw3980100 0.0 1009317
19 october, tue
tue1923:00+5s2887100 0.0 1008215
02:00+5sse279599 0.1 1007234
05:00+7ssw3988100 0.6 1006440
08:00+6ssw41187100 0.4 1005538
11:00+6wsw4879100 0.5 1006793
14:00+6w2475100 0.1 1007787
17:00+5nw3471100 0.1 1008535
20:00+3wnw237695 0.0 100993
20 october, wed
wed2023:00+2w2182100 0.0 100927
02:00+1wnw1186100 0.0 101014
05:00+1wnw1188100 0.0 101013
08:000nw1190100 0.0 101019
11:00+2nnw2378100 0.0 1010435
14:00+3nnw3367100 0.0 1010918
17:00+2nnw3573100 0.1 1010469
20:00+2nnw3670100 0.1 1011681
21 october, thu
thu2123:00+2nnw376587 0.1 1011555
02:00−1nnw37795 0.0 1012283
05:00−1nnw388280 0.0 1013484
08:00+1nnw3667100 0.0 1014959
11:00+2nw3462100 0.0 10141117
14:00+3w225859 0.0 1013923
17:00+2sw2564100 0.0 1013192
20:000ssw41070100 0.0 1011448